1486245600.97,14705,10.13,72356.0,-8.07,-37.03,-37.21,0,*58
1486245602.2,14706,10.13,72358.0,-8.11,-37.15,-37.45,0,*59
1486245603.46,14707,10.13,72358.3,-8.07,-37.09,-37.27,0,*56
1486245604.72,14708,10.13,72358.0,-8.11,-36.91,-37.27,0,*5E
1486245605.98,14709,10.13,72358.8,-8.07,-36.85,-37.09,0,*51
1486245607.24,14710,10.13,72356.3,-8.11,-37.09,-37.27,0,*57
1486245608.5,14711,10.13,72356.8,-8.07,-37.03,-37.09,0,*57
1486245609.76,14712,10.13,72362.3,-8.11,-37.09,-37.27,0,*55
1486245610.99,14713,10.13,72358.8,-8.11,-37.15,-37.27,0,*59
1486245612.23,14714,10.13,72356.8,-8.11,-36.97,-37.15,0,*54
1486245613.47,14715,10.13,72360.0,-8.11,-36.97,-37.15,0,*55
1486245614.74,14716,10.13,72360.5,-8.11,-36.97,-37.09,0,*5B
1486245615.95,14717,10.13,72360.3,-8.13,-37.15,-37.33,0,*5A
1486245617.18,14718,10.13,72362.3,-8.13,-37.03,-37.21,0,*51
1486245618.45,14719,10.13,72358.5,-8.13,-37.21,-37.39,0,*59
1486245619.69,14720,10.13,72360.5,-8.13,-37.15,-37.39,0,*54
1486245620.93,14721,10.13,72362.3,-8.13,-36.97,-37.21,0,*57
1486245622.14,14722,10.13,72360.3,-8.13,-36.85,-37.03,0,*57
1486245623.35,14723,10.13,72356.0,-8.13,-36.85,-37.15,0,*51
1486245624.57,14724,10.13,72360.5,-8.13,-36.97,-37.03,0,*52
1486245625.78,14725,10.13,72360.0,-8.13,-36.85,-37.03,0,*50
1486245626.99,14726,10.13,72360.3,-8.13,-36.85,-37.15,0,*54
1486245628.25,14727,10.13,72356.5,-8.11,-36.79,-36.97,0,*5F
1486245629.48,14728,10.13,72362.3,-8.13,-36.79,-37.15,0,*59
1486245630.72,14729,10.13,72358.8,-8.13,-36.79,-37.03,0,*5F
1486245631.93,14730,10.13,72356.8,-8.13,-36.67,-36.97,0,*54
1486245633.19,14731,10.13,72356.5,-8.11,-36.55,-36.91,0,*50
1486245634.44,14732,10.13,72358.5,-8.11,-36.79,-36.97,0,*5B
1486245635.68,14733,10.13,72360.8,-8.11,-36.73,-36.97,0,*50
1486245636.94,14734,10.13,72360.8,-8.11,-36.79,-36.97,0,*5D
1486245638.22,14735,10.13,72362.3,-8.11,-36.79,-37.09,0,*5A
1486245639.48,14736,10.13,72362.0,-8.07,-36.73,-36.91,0,*54
1486245640.72,14737,10.13,72360.8,-8.11,-36.73,-36.97,0,*54
1486245641.96,14738,10.13,72358.8,-8.11,-36.73,-36.97,0,*5B
1486245643.22,14739,10.13,72362.3,-8.07,-36.85,-36.91,0,*52
1486245644.48,14740,10.13,72358.3,-8.07,-36.73,-36.91,0,*55
1486245645.71,14741,10.13,72356.8,-8.07,-36.67,-36.85,0,*54
1486245647.0,14742,10.13,72360.3,-8.11,-36.61,-36.91,0,*53
1486245648.25,14743,10.13,72358.3,-8.07,-36.79,-36.97,0,*5A
1486245649.52,14744,10.13,72362.5,-8.07,-36.73,-36.91,0,*51
1486245650.76,14745,10.13,72358.0,-8.11,-36.73,-36.97,0,*51
1486245652.02,14746,10.13,72360.5,-8.07,-36.73,-36.91,0,*53
1486245653.28,14747,10.13,72358.0,-8.07,-36.67,-36.91,0,*57
1486245654.54,14748,10.13,72358.5,-8.07,-36.73,-36.91,0,*5D
1486245655.8,14749,10.13,72356.8,-8.07,-36.91,-37.03,0,*5A
1486245657.06,14750,10.13,72356.3,-8.07,-37.03,-37.09,0,*52
1486245658.33,14751,10.13,72354.8,-8.07,-37.03,-37.09,0,*53
1486245659.61,14752,10.13,72358.5,-8.07,-36.91,-36.91,0,*5A
1486245660.85,14753,10.13,72356.0,-8.07,-36.85,-37.03,0,*54
1486245662.11,14754,10.13,72358.3,-8.11,-36.97,-37.09,0,*5D
1486245663.38,14755,10.13,72356.8,-8.07,-36.85,-36.91,0,*58
1486245664.66,14756,10.13,72360.3,-8.07,-36.91,-37.09,0,*5E
1486245665.9,14757,10.13,72362.0,-8.07,-36.85,-37.03,0,*50
1486245667.14,14758,10.13,72360.0,-8.05,-36.91,-37.03,0,*58
1486245668.4,14759,10.13,72356.8,-8.07,-36.91,-37.03,0,*5B
1486245669.66,14760,10.13,72358.0,-8.07,-36.91,-37.03,0,*51
1486245670.95,14761,10.13,72360.3,-8.07,-36.91,-37.21,0,*50
1486245672.21,14762,10.13,72362.0,-8.07,-37.03,-37.09,0,*53
1486245673.5,14763,10.13,72360.8,-8.07,-36.91,-37.09,0,*58
1486245674.76,14764,10.13,72362.5,-8.07,-36.85,-37.09,0,*5A
1486245676.05,14765,10.13,72356.8,-8.07,-36.91,-37.21,0,*54
1486245677.34,14766,10.13,72356.5,-8.07,-37.09,-37.39,0,*5E
1486245678.64,14767,10.13,72364.0,-8.07,-37.21,-37.39,0,*55
1486245679.87,14768,10.13,72366.0,-8.07,-37.27,-37.45,0,*57
1486245681.16,14769,10.13,72362.0,-8.07,-37.21,-37.39,0,*5B
1486245682.42,14770,10.13,72356.8,-8.07,-36.85,-36.91,0,*5F
1486245683.66,14771,10.13,72362.0,-8.07,-36.85,-37.03,0,*54
1486245684.9,14772,10.13,72356.8,-8.07,-36.85,-37.03,0,*57
1486245686.16,14773,10.13,72356.0,-8.07,-36.85,-36.91,0,*5C
1486245687.4,14774,10.13,72360.0,-8.07,-36.85,-37.03,0,*51
1486245688.69,14775,10.13,72362.5,-8.07,-36.91,-37.21,0,*55
1486245689.92,14776,10.13,72366.3,-8.11,-37.15,-37.45,0,*5E
1486245691.18,14777,10.13,72362.5,-8.11,-37.09,-37.33,0,*53
1486245692.45,14778,10.13,72366.5,-8.07,-37.21,-37.27,0,*54
1486245693.74,14779,10.13,72360.0,-8.07,-37.21,-37.39,0,*5A
1486245695.0,14780,10.13,72356.3,-8.11,-37.09,-37.03,0,*58
1486245696.27,14781,10.13,72356.8,-8.11,-36.97,-37.09,0,*55
1486245697.53,14782,10.13,72356.0,-8.11,-36.97,-37.09,0,*56
1486245698.77,14783,10.13,72356.8,-8.11,-36.97,-37.15,0,*5A
1486245700.06,14784,10.13,72356.0,-8.07,-37.09,-37.21,0,*5B
1486245701.29,14785,10.13,72356.5,-8.11,-37.27,-37.33,0,*52
1486245702.56,14786,10.13,72360.0,-8.11,-37.09,-37.15,0,*59
1486245703.77,14787,10.13,72356.8,-8.13,-36.97,-37.15,0,*5C
1486245705.01,14788,10.13,72358.3,-8.11,-36.97,-37.15,0,*51
1486245706.28,14789,10.13,72356.8,-8.11,-36.91,-37.15,0,*56
1486245707.51,14790,10.13,72358.8,-8.11,-36.97,-37.27,0,*59
1486245708.75,14791,10.13,72356.5,-8.13,-37.21,-37.33,0,*53
1486245709.99,14792,10.13,72354.5,-8.11,-37.15,-37.15,0,*51
1486245711.28,14793,10.13,72358.3,-8.11,-36.91,-37.09,0,*50
1486245712.54,14794,10.13,72356.3,-8.11,-36.91,-36.97,0,*51
1486245713.78,14795,10.13,72356.3,-8.07,-36.85,-37.03,0,*5E
1486245715.04,14796,10.13,72356.0,-8.11,-36.91,-36.97,0,*53
1486245716.32,14797,10.13,72358.5,-8.11,-36.91,-37.09,0,*54
1486245717.59,14798,10.13,72354.8,-8.11,-36.97,-37.09,0,*5D
1486245718.83,14799,10.13,72356.3,-8.07,-36.73,-37.03,0,*5B
1486245720.07,14800,10.13,72358.3,-8.11,-36.97,-37.15,0,*5E
1486245721.33,14801,10.13,72356.5,-8.07,-37.03,-37.09,0,*59
1486245722.59,14802,10.13,72350.3,-8.11,-36.73,-36.91,0,*5B
1486245723.88,14803,10.13,72356.0,-8.11,-36.61,-36.91,0,*59
1486245725.16,14804,10.13,72356.8,-8.11,-36.79,-36.91,0,*57
1486245726.42,14805,10.13,72352.8,-8.11,-36.73,-36.79,0,*5A
1486245727.66,14806,10.13,72354.0,-8.07,-36.55,-36.73,0,*50
1486245728.92,14807,10.13,72350.3,-8.11,-36.37,-36.55,0,*56
1486245730.19,14808,10.13,72348.8,-8.07,-36.37,-36.55,0,*5E
1486245731.45,14809,10.13,72354.5,-8.11,-36.73,-36.91,0,*50
1486245732.69,14810,10.13,72354.5,-8.07,-36.55,-36.85,0,*5E
1486245733.92,14811,10.13,72352.5,-8.07,-36.67,-36.85,0,*5E
1486245735.18,14812,10.13,72356.0,-8.07,-36.73,-36.91,0,*5D
1486245736.42,14813,10.13,72356.5,-8.07,-36.73,-37.03,0,*56
1486245737.68,14814,10.19,72356.3,-8.07,-36.67,-36.91,0,*5E
1486245738.89,14815,10.13,72354.5,-8.05,-36.67,-36.85,0,*58
1486245740.1,14816,10.13,72354.0,-8.05,-36.55,-36.85,0,*5A
1486245741.33,14817,10.13,72354.5,-8.05,-36.73,-36.91,0,*5A
1486245742.57,14818,10.13,72356.3,-8.05,-36.67,-36.91,0,*50
1486245743.77,14819,10.13,72358.3,-8.05,-36.55,-36.85,0,*55
1486245745.04,14820,10.13,72356.0,-8.03,-36.49,-36.73,0,*5D
1486245746.27,14821,10.13,72354.3,-8.05,-36.49,-36.67,0,*5F
1486245747.51,14822,10.13,72360.3,-8.05,-36.37,-36.55,0,*54
1486245748.75,14823,10.13,72358.5,-8.05,-36.31,-36.49,0,*5E
1486245749.98,14824,10.13,72358.0,-8.03,-36.73,-36.85,0,*59
1486245751.22,14825,10.13,72362.3,-8.03,-36.73,-37.03,0,*57
1486245752.48,14826,10.13,72358.8,-8.03,-36.67,-36.91,0,*5B
1486245753.75,14827,10.13,72358.0,-8.03,-36.73,-36.91,0,*5F
1486245754.99,14828,10.13,72358.5,-8.03,-36.31,-36.55,0,*5E
1486245756.25,14829,10.19,72360.0,-8.03,-36.37,-36.73,0,*5D
1486245757.46,14830,10.13,72358.8,-8.05,-36.67,-36.85,0,*5F
1486245758.67,14831,10.13,72360.0,-8.01,-36.85,-37.03,0,*59
1486245759.94,14832,10.13,72360.8,-7.99,-36.97,-37.21,0,*57
1486245761.18,14833,10.13,72360.0,-8.01,-37.21,-37.33,0,*57
1486245762.47,14834,10.19,72360.0,-8.03,-37.39,-37.51,0,*5F
1486245763.76,14835,10.13,72356.8,-8.03,-37.21,-37.21,0,*50
1486245765.03,14836,10.13,72356.0,-8.05,-37.21,-37.39,0,*5C
1486245766.29,14837,10.13,72358.8,-8.03,-37.03,-37.21,0,*52
1486245767.55,14838,10.13,72356.3,-8.03,-37.09,-37.27,0,*51
1486245768.79,14839,10.13,72360.5,-8.05,-37.03,-37.39,0,*53
1486245770.02,14840,10.13,72360.3,-8.05,-37.27,-37.39,0,*5B
1486245771.29,14841,10.13,72360.3,-8.03,-37.27,-37.51,0,*52
1486245772.58,14842,10.13,72356.5,-8.03,-37.39,-37.51,0,*5E
1486245773.84,14843,10.13,72360.3,-8.05,-37.39,-37.63,0,*58
1486245775.11,14844,10.13,72360.5,-8.05,-37.21,-37.39,0,*59
1486245776.34,14845,10.13,72362.3,-8.05,-36.91,-37.03,0,*5B
1486245777.58,14846,10.13,72360.3,-8.05,-36.73,-36.91,0,*5E
1486245778.87,14847,10.13,72362.0,-8.03,-36.91,-37.21,0,*5F
1486245780.1,14848,10.13,72360.3,-8.05,-37.27,-37.39,0,*53
1486245781.34,14849,10.13,72358.3,-8.05,-37.03,-37.09,0,*57
1486245782.63,14850,10.13,72360.3,-8.03,-36.91,-37.09,0,*53
1486245783.86,14851,10.13,72358.8,-8.05,-36.91,-37.27,0,*58
1486245785.12,14852,10.13,72356.5,-8.05,-36.91,-37.21,0,*5D
1486245786.39,14853,10.13,72360.8,-8.05,-37.09,-37.21,0,*5C
1486245787.62,14854,10.13,72362.5,-8.05,-37.21,-37.27,0,*57
1486245788.85,14855,10.13,72362.0,-8.05,-37.09,-37.27,0,*5C
1486245790.09,14856,10.13,72360.8,-8.05,-37.21,-37.45,0,*51
1486245791.36,14857,10.13,72362.8,-8.05,-37.21,-37.39,0,*5B
1486245792.62,14858,10.13,72360.5,-8.07,-37.21,-37.45,0,*5D
1486245793.85,14859,10.13,72360.5,-8.07,-37.03,-37.27,0,*58
1486245795.11,14860,10.13,72360.8,-8.05,-36.91,-37.09,0,*56
1486245796.32,14861,10.13,72358.3,-8.05,-37.03,-37.03,0,*57
1486245797.62,14862,10.13,72360.8,-8.07,-37.21,-37.39,0,*5F
1486245798.88,14863,10.13,72360.0,-8.07,-36.67,-36.91,0,*5E
1486245800.11,14864,10.13,72360.3,-8.07,-36.73,-36.85,0,*59
1486245801.38,14865,10.13,72362.8,-8.07,-36.85,-37.09,0,*54
1486245802.64,14866,10.13,72360.5,-8.05,-37.09,-37.39,0,*53
1486245803.91,14867,10.19,72364.3,-8.05,-37.21,-37.39,0,*58
1486245805.14,14868,10.13,72362.0,-8.05,-37.27,-37.51,0,*5F
1486245806.41,14869,10.13,72360.8,-8.07,-37.21,-37.27,0,*5B
1486245807.67,14870,10.13,72362.8,-8.05,-37.09,-37.39,0,*54
1486245808.93,14871,10.13,72362.3,-8.11,-37.33,-37.51,0,*57
1486245810.16,14872,10.13,72360.5,-8.07,-37.27,-37.45,0,*53
1486245811.43,14873,10.13,72360.8,-8.07,-37.21,-37.27,0,*50
1486245812.69,14874,10.13,72364.5,-8.07,-37.21,-37.27,0,*57
1486245813.95,14875,10.13,72364.0,-8.07,-37.03,-37.09,0,*5A
1486245815.21,14876,10.19,72366.3,-8.11,-37.09,-37.27,0,*58
1486245816.44,14877,10.13,72360.8,-8.11,-37.33,-37.57,0,*57
1486245817.68,14878,10.13,72360.3,-8.11,-37.45,-37.57,0,*59
1486245818.91,14879,10.13,72364.8,-8.11,-37.33,-37.57,0,*59
1486245820.2,14880,10.13,72362.5,-8.07,-37.39,-37.51,0,*54
1486245821.5,14881,10.13,72362.5,-8.07,-37.21,-37.39,0,*52
1486245822.73,14882,10.13,72358.8,-8.11,-37.33,-37.45,0,*5E
1486245823.96,14883,10.13,72360.3,-8.11,-37.27,-37.45,0,*5A
1486245825.21,14884,10.13,72364.0,-8.07,-37.09,-37.27,0,*52
1486245826.48,14885,10.13,72360.8,-8.11,-37.33,-37.51,0,*5C
1486245827.71,14886,10.19,72362.8,-8.11,-37.27,-37.57,0,*5C
1486245828.94,14887,10.19,72360.8,-8.11,-37.33,-37.45,0,*5B
1486245830.17,14888,10.13,72362.8,-8.11,-37.33,-37.57,0,*57
1486245831.44,14889,10.13,72358.8,-8.11,-37.45,-37.51,0,*51
1486245832.7,14890,10.13,72356.5,-8.11,-37.33,-37.51,0,*58
1486245833.95,14891,10.13,72360.3,-8.11,-37.45,-37.69,0,*53
1486245835.21,14892,10.19,72362.8,-8.11,-37.45,-37.51,0,*5B
1486245836.42,14893,10.13,72358.0,-8.13,-37.57,-37.57,0,*5D
1486245837.63,14894,10.13,72360.8,-8.13,-37.33,-37.57,0,*58
1486245838.84,14895,10.13,72358.3,-8.13,-37.33,-37.57,0,*59
1486245840.1,14896,10.13,72358.5,-8.13,-37.39,-37.51,0,*56
1486245841.37,14897,10.13,72362.0,-8.13,-37.39,-37.63,0,*56
1486245842.61,14898,10.13,72360.5,-8.15,-37.33,-37.57,0,*52
1486245843.87,14899,10.13,72362.3,-8.15,-37.39,-37.57,0,*59
1486245845.08,14900,10.13,72364.0,-8.13,-37.33,-37.57,0,*54
1486245846.34,14901,10.13,72360.8,-8.15,-37.39,-37.57,0,*59
1486245847.63,14902,10.13,72364.3,-8.15,-37.39,-37.39,0,*52
1486245848.93,14903,10.13,72360.3,-8.15,-37.39,-37.63,0,*5C
1486245850.17,14904,10.13,72360.5,-8.15,-37.33,-37.57,0,*56
1486245851.4,14905,10.13,72362.3,-8.13,-37.33,-37.39,0,*59
1486245852.64,14906,10.13,72360.3,-8.13,-37.33,-37.39,0,*5A
1486245853.9,14907,10.13,72362.8,-8.15,-37.39,-37.57,0,*5F
1486245855.14,14908,10.13,72360.5,-8.15,-37.33,-37.57,0,*5A
1486245856.4,14909,10.19,72364.0,-8.15,-37.33,-37.51,0,*5D
1486245857.7,14910,10.13,72362.8,-8.15,-37.39,-37.39,0,*51
1486245858.96,14911,10.13,72360.5,-8.15,-37.15,-37.39,0,*5E
1486245860.2,14912,10.13,72362.8,-8.15,-37.15,-37.33,0,*57
1486245861.47,14913,10.13,72358.8,-8.15,-37.21,-37.33,0,*51
1486245862.68,14914,10.13,72362.8,-8.17,-37.27,-37.57,0,*50
1486245863.94,14915,10.13,72362.0,-8.15,-37.33,-37.51,0,*50
1486245865.24,14916,10.13,72362.8,-8.15,-37.21,-37.51,0,*50
1486245866.48,14917,10.13,72362.3,-8.15,-37.33,-37.57,0,*54
1486245867.74,14918,10.13,72360.0,-8.15,-37.33,-37.51,0,*5D
1486245869.01,14919,10.13,72360.8,-8.17,-37.39,-37.63,0,*55
1486245870.26,14920,10.13,72362.5,-8.17,-37.39,-37.69,0,*55
1486245871.52,14921,10.13,72360.8,-8.19,-37.21,-37.45,0,*5D
1486245872.73,14922,10.13,72362.0,-8.17,-37.27,-37.57,0,*55
1486245873.97,14923,10.13,72362.3,-8.17,-37.39,-37.57,0,*5B
1486245875.2,14924,10.13,72358.5,-8.19,-37.03,-37.27,0,*5C
1486245876.46,14925,10.13,72360.3,-8.17,-37.09,-37.39,0,*56
1486245877.69,14926,10.13,72362.8,-8.17,-37.21,-37.45,0,*54
1486245878.9,14927,10.13,72362.0,-8.17,-37.27,-37.45,0,*53
1486245880.11,14928,10.13,72360.0,-8.17,-37.27,-37.57,0,*5F
1486245881.33,14929,10.13,72362.0,-8.19,-37.27,-37.45,0,*53
1486245882.57,14930,10.19,72362.5,-8.17,-37.09,-37.27,0,*5D
1486245883.85,14931,10.13,72360.8,-8.19,-37.09,-37.21,0,*54
1486245885.08,14932,10.13,72362.5,-8.19,-37.27,-37.45,0,*59
1486245886.34,14933,10.13,72360.3,-8.19,-36.85,-37.09,0,*59
1486245887.55,14934,10.13,72354.8,-8.17,-36.85,-37.03,0,*5A
1486245888.82,14935,10.13,72358.0,-8.17,-37.21,-37.39,0,*5D
1486245890.06,14936,10.13,72358.0,-8.17,-37.21,-37.45,0,*55
1486245891.32,14937,10.13,72360.3,-8.15,-37.03,-37.21,0,*54
1486245892.56,14938,10.13,72362.0,-8.17,-36.85,-37.21,0,*56
1486245893.81,14939,10.13,72360.3,-8.15,-36.97,-37.15,0,*51
1486245895.04,14940,10.13,72360.5,-8.17,-37.03,-37.09,0,*5C
1486245896.3,14941,10.13,72362.3,-8.17,-36.91,-37.21,0,*5D
1486245897.54,14942,10.13,72360.8,-8.15,-37.15,-37.33,0,*52
1486245898.78,14943,10.13,72362.3,-8.15,-36.85,-37.03,0,*58
1486245900.03,14944,10.13,72362.3,-8.15,-36.97,-37.15,0,*5B
1486245901.27,14945,10.13,72360.0,-8.15,-36.85,-37.03,0,*5E
1486245902.5,14946,10.13,72360.0,-8.17,-37.09,-37.27,0,*5C
1486245903.75,14947,10.13,72358.3,-8.15,-36.97,-37.15,0,*58
1486245905.01,14948,10.13,72360.5,-8.15,-36.79,-37.03,0,*50
1486245906.25,14949,10.13,72358.5,-8.15,-36.85,-37.15,0,*55
1486245907.52,14950,10.13,72362.5,-8.15,-37.03,-37.21,0,*55
1486245908.78,14951,10.13,72362.8,-8.15,-37.15,-37.39,0,*5A
1486245910.02,14952,10.13,72362.0,-8.15,-37.03,-37.33,0,*54
1486245911.29,14953,10.13,72360.5,-8.15,-37.15,-37.21,0,*51
1486245912.5,14954,10.13,72358.3,-8.13,-36.97,-37.03,0,*5B
1486245913.74,14955,10.13,72356.5,-8.17,-37.03,-37.21,0,*52
1486245914.97,14956,10.13,72360.5,-8.15,-37.15,-37.33,0,*57
1486245916.24,14957,10.13,72358.5,-8.15,-36.97,-37.21,0,*5E
1486245917.45,14958,10.13,72360.8,-8.13,-36.97,-37.33,0,*54
1486245918.69,14959,10.13,72358.8,-8.13,-36.97,-37.21,0,*56
1486245919.93,14960,10.13,72356.8,-8.15,-36.85,-37.15,0,*5E
1486245921.2,14961,10.13,72360.0,-8.15,-36.79,-37.03,0,*5B
1486245922.46,14962,10.13,72360.0,-8.15,-36.61,-36.85,0,*5E
1486245923.7,14963,10.13,72360.5,-8.15,-36.67,-37.03,0,*56
1486245924.96,14964,10.13,72358.8,-8.15,-37.21,-37.33,0,*51
1486245926.26,14965,10.13,72362.0,-8.15,-37.39,-37.63,0,*5C
1486245927.52,14966,10.13,72360.3,-8.15,-37.39,-37.57,0,*58
1486245928.79,14967,10.19,72360.8,-8.15,-37.57,-37.63,0,*56
1486245930.06,14968,10.13,72362.5,-8.15,-37.57,-37.63,0,*59
1486245931.32,14969,10.13,72360.0,-8.17,-37.63,-37.63,0,*5D
1486245932.62,14970,10.13,72362.8,-8.15,-37.39,-37.63,0,*58
1486245933.92,14971,10.13,72362.8,-8.15,-37.21,-37.39,0,*5F
1486245935.14,14972,10.13,72358.3,-8.19,-37.27,-37.45,0,*5D
1486245936.41,14973,10.13,72356.5,-8.17,-37.21,-37.39,0,*5F
1486245937.65,14974,10.13,72360.0,-8.17,-37.03,-37.21,0,*51
1486245938.91,14975,10.13,72362.5,-8.17,-36.91,-37.21,0,*5A
1486245940.17,14976,10.13,72358.8,-8.17,-36.91,-37.09,0,*53
1486245941.41,14977,10.13,72360.5,-8.17,-36.85,-37.21,0,*5D
1486245942.65,14978,10.13,72362.3,-8.17,-36.85,-37.21,0,*52
1486245943.91,14979,10.13,72362.0,-8.17,-36.91,-37.09,0,*5C
1486245945.15,14980,10.13,72358.5,-8.17,-36.85,-37.09,0,*5F
1486245946.41,14981,10.13,72356.8,-8.17,-36.91,-37.21,0,*51
1486245947.65,14982,10.13,72356.3,-8.15,-36.97,-37.15,0,*51
1486245948.89,14983,10.13,72356.3,-8.15,-37.15,-37.33,0,*5F
1486245950.16,14984,10.13,72356.3,-8.15,-37.03,-37.21,0,*5C
1486245951.4,14985,10.13,72362.0,-8.15,-36.97,-37.15,0,*56
1486245952.66,14986,10.13,72362.3,-8.15,-36.79,-37.03,0,*52
1486245953.93,14987,10.13,72360.5,-8.15,-36.79,-37.15,0,*54
1486245955.19,14988,10.13,72360.3,-8.15,-36.79,-37.03,0,*5C
1486245956.43,14989,10.13,72360.5,-8.15,-36.85,-37.03,0,*5E
1486245957.69,14990,10.13,72358.5,-8.15,-36.79,-36.97,0,*59
1486245958.92,14991,10.13,72358.0,-8.17,-36.67,-36.91,0,*53
1486245960.13,14992,10.13,72360.8,-8.17,-36.55,-36.85,0,*54
1486245961.39,14993,10.13,72362.8,-8.15,-36.79,-37.03,0,*56
1486245962.62,14994,10.13,72364.0,-8.13,-36.79,-37.03,0,*57
1486245963.88,14995,10.13,72362.0,-8.15,-36.79,-37.03,0,*50
1486245965.09,14996,10.13,72362.3,-8.13,-36.67,-36.97,0,*56
1486245966.34,14997,10.13,72358.0,-8.15,-36.85,-37.15,0,*56
1486245967.55,14998,10.13,72360.5,-8.13,-36.85,-37.15,0,*5F
1486245968.79,14999,10.13,72360.0,-8.15,-36.85,-37.03,0,*5F
1486245970.06,15000,10.13,72364.5,-8.15,-36.79,-37.15,0,*53
1486245971.29,15001,10.13,72362.3,-8.13,-36.79,-37.03,0,*53
1486245972.55,15002,10.13,72358.0,-8.15,-36.43,-36.61,0,*5A
1486245973.78,15003,10.13,72360.3,-8.13,-36.49,-36.85,0,*5D
1486245974.99,15004,10.13,72360.8,-8.13,-36.67,-36.97,0,*55
1486245976.23,15005,10.13,72362.0,-8.13,-36.61,-36.97,0,*52
1486245977.44,15006,10.13,72364.8,-8.13,-36.67,-37.03,0,*5B
1486245978.65,15007,10.13,72360.8,-8.13,-36.67,-36.97,0,*56
1486245979.86,15008,10.13,72360.5,-8.13,-36.85,-37.03,0,*59
1486245981.07,15009,10.13,72362.5,-8.13,-36.85,-37.03,0,*58
1486245982.29,15010,10.13,72360.0,-8.13,-36.97,-37.15,0,*54
1486245983.52,15011,10.13,72366.0,-8.13,-36.61,-36.97,0,*57
1486245984.78,15012,10.13,72362.3,-8.15,-36.79,-36.85,0,*58
1486245986.04,15013,10.13,72362.5,-8.11,-36.79,-36.97,0,*5E
1486245987.27,15014,10.13,72362.3,-8.11,-36.97,-37.27,0,*53
1486245988.53,15015,10.13,72364.0,-8.07,-37.03,-37.09,0,*55
1486245989.74,15016,10.13,72364.3,-8.13,-36.97,-37.03,0,*55
1486245990.96,15017,10.13,72362.0,-8.13,-36.85,-37.03,0,*57
1486245992.17,15018,10.13,72360.5,-8.13,-36.43,-36.67,0,*51
1486245993.43,15019,10.13,72360.3,-8.11,-36.73,-36.91,0,*58
1486245994.67,15020,10.19,72366.5,-8.11,-36.97,-37.15,0,*55
1486245995.94,15021,10.13,72364.8,-8.07,-36.85,-36.91,0,*5D
1486245997.2,15022,10.13,72360.3,-8.11,-36.73,-37.09,0,*50
1486245998.41,15023,10.13,72362.3,-8.13,-37.03,-37.15,0,*58
1486245999.64,15024,10.13,72366.8,-8.11,-37.27,-37.45,0,*5E
1486246000.88,15025,10.13,72360.5,-8.11,-37.15,-37.33,0,*5F
1486246002.14,15026,10.13,72366.5,-8.11,-37.09,-37.15,0,*55
1486246003.38,15027,10.13,72364.3,-8.11,-36.97,-37.15,0,*52
1486246004.67,15028,10.13,72364.3,-8.11,-36.91,-37.09,0,*56
1486246005.88,15029,10.13,72362.3,-8.13,-36.97,-37.03,0,*59
1486246007.12,15030,10.13,72366.5,-8.13,-37.03,-37.21,0,*5D
1486246008.33,15031,10.19,72368.5,-8.13,-37.03,-37.15,0,*5B
1486246009.57,15032,10.13,72366.8,-8.13,-37.21,-37.33,0,*5C
1486246010.84,15033,10.13,72364.8,-8.13,-37.21,-37.21,0,*5E
1486246012.04,15034,10.13,72366.0,-8.13,-37.15,-37.33,0,*5D
1486246013.31,15035,10.13,72366.5,-8.13,-37.21,-37.39,0,*51
1486246014.58,15036,10.13,72364.5,-8.13,-37.21,-37.51,0,*5C
1486246015.88,15037,10.13,72366.5,-8.15,-37.21,-37.51,0,*5B
1486246017.14,15038,10.13,72366.3,-8.13,-37.21,-37.39,0,*5C
1486246018.38,15039,10.13,72366.8,-8.13,-37.03,-37.21,0,*54
1486246019.65,15040,10.13,72364.3,-8.15,-37.15,-37.21,0,*5B
1486246020.91,15041,10.13,72364.8,-8.15,-37.03,-37.21,0,*5D
1486246022.18,15042,10.19,72364.3,-8.15,-36.97,-37.21,0,*52
1486246023.4,15043,10.13,72362.0,-8.13,-36.97,-37.15,0,*52
1486246024.66,15044,10.19,72364.3,-8.15,-36.79,-37.03,0,*54
1486246025.92,15045,10.13,72364.0,-8.15,-36.79,-37.03,0,*55
1486246027.18,15046,10.13,72360.5,-8.13,-36.49,-36.79,0,*5F
1486246028.41,15047,10.13,72364.8,-8.13,-36.79,-36.97,0,*5D
1486246029.62,15048,10.13,72362.3,-8.13,-36.85,-37.15,0,*5A
1486246030.86,15049,10.13,72360.3,-8.15,-37.03,-37.33,0,*56
1486246032.1,15050,10.13,72362.0,-8.13,-37.21,-37.33,0,*58
1486246033.39,15051,10.19,72364.8,-8.15,-37.39,-37.63,0,*53
1486246034.63,15052,10.19,72364.8,-8.13,-37.39,-37.57,0,*51
1486246035.89,15053,10.13,72362.5,-8.15,-37.51,-37.57,0,*58
1486246037.13,15054,10.13,72360.8,-8.15,-37.33,-37.57,0,*5B
1486246038.37,15055,10.13,72360.5,-8.13,-37.15,-37.21,0,*59
1486246039.61,15056,10.13,72358.8,-8.13,-37.15,-37.39,0,*53
1486246040.87,15057,10.13,72360.3,-8.15,-37.15,-37.39,0,*54
1486246042.14,15058,10.13,72360.5,-8.13,-37.21,-37.39,0,*5A
1486246043.38,15059,10.13,72362.5,-8.13,-37.15,-37.21,0,*55
1486246044.64,15060,10.13,72362.3,-8.17,-37.39,-37.63,0,*53
1486246045.88,15061,10.13,72362.5,-8.15,-37.33,-37.57,0,*5D
1486246047.13,15062,10.19,72366.3,-8.17,-37.39,-37.69,0,*5B
1486246048.4,15063,10.13,72360.0,-8.17,-37.39,-37.63,0,*50
1486246049.67,15064,10.13,72360.8,-8.17,-37.21,-37.39,0,*51
1486246050.9,15065,10.13,72358.3,-8.17,-37.21,-37.27,0,*5F
1486246052.14,15066,10.13,72362.3,-8.17,-37.21,-37.45,0,*58
1486246053.37,15067,10.13,72364.0,-8.19,-37.27,-37.57,0,*52
1486246054.66,15068,10.13,72364.5,-8.19,-37.39,-37.63,0,*55
1486246055.92,15069,10.13,72362.3,-8.17,-37.39,-37.63,0,*5A
1486246057.19,15070,10.13,72364.3,-8.17,-37.39,-37.63,0,*52
1486246058.42,15071,10.13,72360.8,-8.19,-37.45,-37.57,0,*51
1486246059.7,15072,10.13,72366.5,-8.19,-37.63,-37.69,0,*5B
1486246060.93,15073,10.13,72364.5,-8.19,-37.45,-37.57,0,*53
1486246062.17,15074,10.13,72366.5,-8.17,-37.27,-37.39,0,*56
1486246063.42,15075,10.19,72364.3,-8.19,-37.09,-37.27,0,*5A
1486246064.69,15076,10.13,72364.0,-8.17,-36.91,-37.21,0,*51
1486246065.94,15077,10.13,72360.0,-8.19,-37.09,-37.27,0,*58
1486246067.23,15078,10.13,72362.3,-8.19,-37.39,-37.63,0,*54
1486246068.47,15079,10.13,72362.3,-8.17,-37.45,-37.63,0,*50
1486246069.73,15080,10.19,72366.5,-8.19,-37.39,-37.57,0,*54
1486246071.01,15081,10.13,72366.5,-8.19,-36.91,-37.09,0,*5D
1486246072.25,15082,10.13,72364.3,-8.17,-36.85,-37.09,0,*55
1486246073.51,15083,10.19,72368.3,-8.19,-37.09,-37.27,0,*53
1486246074.8,15084,10.13,72362.0,-8.19,-37.21,-37.39,0,*51
1486246076.03,15085,10.13,72366.3,-8.19,-37.27,-37.57,0,*5E
1486246077.26,15086,10.13,72362.8,-8.19,-37.45,-37.57,0,*59
1486246078.53,15087,10.13,72364.0,-8.19,-37.57,-37.63,0,*5C
1486246079.79,15088,10.13,72360.5,-8.19,-37.45,-37.63,0,*50
1486246081.03,15089,10.13,72366.0,-8.21,-37.51,-37.75,0,*58
1486246082.26,15090,10.19,72368.0,-8.21,-37.33,-37.51,0,*52
1486246083.5,15091,10.13,72362.8,-8.21,-37.33,-37.51,0,*53
1486246084.71,15092,10.13,72364.5,-8.21,-37.15,-37.33,0,*50
1486246085.92,15093,10.13,72366.8,-8.21,-37.27,-37.33,0,*50
1486246087.15,15094,10.13,72364.8,-8.23,-37.45,-37.75,0,*53
1486246088.41,15095,10.13,72364.5,-8.21,-37.63,-37.69,0,*59
1486246089.64,15096,10.13,72366.3,-8.21,-37.45,-37.69,0,*5E
1486246090.9,15097,10.13,72364.8,-8.23,-37.33,-37.51,0,*57
1486246092.17,15098,10.13,72364.0,-8.23,-37.33,-37.63,0,*59
1486246093.4,15099,10.13,72368.0,-8.21,-37.51,-37.75,0,*59
1486246094.63,15100,10.13,72364.8,-8.23,-37.27,-37.45,0,*58
1486246095.86,15101,10.13,72364.8,-8.23,-37.15,-37.27,0,*5C
1486246097.1,15102,10.13,72366.0,-8.23,-37.27,-37.33,0,*5B
1486246098.33,15103,10.13,72364.3,-8.23,-37.15,-37.45,0,*5A
1486246099.56,15104,10.13,72364.5,-8.23,-37.15,-37.33,0,*5C